CW9476 Weather Reports


time (UTC)temp
C
wind
direction
speed
KPH
gust
KPH
rain 1hr
cm
rain 24hr
cm
rain mn
cm
humidity
%
barometer
mb
20260504202630 21 271 4.8 12.9 0.00 0.00 0.00 37 1009.3
20260504202130 21 234 3.2 12.9 0.00 0.00 0.00 37 1009.3
20260504201630 21 215 8.0 12.9 0.00 0.00 0.00 36 1009.5
20260504201130 21 308 12.9 12.9 0.00 0.00 0.00 38 1009.5
20260504200630 21 230 3.2 14.5 0.00 0.00 0.00 36 1009.6
20260504200130 21 250 4.8 14.5 0.00 0.00 0.00 36 1010.0
20260504195630 21 198 11.3 14.5 0.00 0.00 0.00 35 1009.9
20260504195130 21 178 3.2 14.5 0.00 0.00 0.00 37 1009.9
20260504194630 21 308 6.4 20.9 0.00 0.00 0.00 35 1010.0
20260504194130 21 344 4.8 20.9 0.00 0.00 0.00 37 1010.2
20260504193630 21 137 6.4 11.3 0.00 0.00 0.00 35 1010.2
20260504193130 21 308 0.0 12.9 0.00 0.00 0.00 34 1010.2
20260504192629 21 273 3.2 12.9 0.00 0.00 0.00 35 1010.4
20260504192130 21 49 4.8 16.1 0.00 0.00 0.00 36 1010.2
20260504191630 21 355 3.2 16.1 0.00 0.00 0.00 37 1010.2
20260504191130 21 265 3.2 11.3 0.00 0.00 0.00 37 1010.3
20260504190630 21 202 1.6 11.3 0.00 0.00 0.00 36 1010.5
20260504190129 20 104 3.2 11.3 0.00 0.00 0.00 35 1010.5
20260504185629 20 194 1.6 17.7 0.00 0.00 0.00 35 1010.6
20260504185130 20 234 4.8 17.7 0.00 0.00 0.00 35 1010.5
20260504184629 20 238 3.2 12.9 0.00 0.00 0.00 36 1010.7
20260504184129 20 292 3.2 12.9 0.00 0.00 0.00 36 1010.6
20260504183629 20 248 8.0 16.1 0.00 0.00 0.00 35 1010.7
20260504183129 21 185 4.8 16.1 0.00 0.00 0.00 35 1010.8
20260504182629 21 238 6.4 11.3 0.00 0.00 0.00 34 1010.7
20260504181629 21 223 6.4 14.5 0.00 0.00 0.00 34 1010.8
20260504181130 21 250 3.2 14.5 0.00 0.00 0.00 34 1011.0
20260504180629 21 182 3.2 14.5 0.00 0.00 0.00 35 1011.0
20260504180129 21 211 4.8 11.3 0.00 0.00 0.00 34 1011.1
20260504175629 20 219 4.8 16.1 0.00 0.00 0.00 34 1011.0
20260504175129 20 200 3.2 16.1 0.00 0.00 0.00 34 1011.0
20260504174629 20 238 8.0 12.9 0.00 0.00 0.00 33 1011.0
20260504174129 20 183 1.6 12.9 0.00 0.00 0.00 33 1011.1
20260504173129 20 240 4.8 19.3 0.00 0.00 0.00 37 1011.1
20260504172629 20 227 6.4 19.3 0.00 0.00 0.00 34 1011.2
20260504172129 20 240 1.6 19.3 0.00 0.00 0.00 34 1011.3
20260504171629 20 225 9.7 11.3 0.00 0.00 0.00 35 1011.4
20260504171129 20 223 8.0 11.3 0.00 0.00 0.00 36 1011.5
20260504170629 20 203 6.4 11.3 0.00 0.00 0.00 35 1011.7
20260504170129 20 235 6.4 12.9 0.00 0.00 0.00 35 1011.8
20260504151128 17 284 1.6 12.9 0.00 0.00 0.00 39 1012.8
20260504150628 17 263 3.2 12.9 0.00 0.00 0.00 39 1012.9
20260504150128 17 116 12.9 14.5 0.00 0.00 0.00 40 1012.9
20260504140628 15 268 4.8 14.5 0.00 0.00 0.00 41 1013.1
20260504140128 15 325 3.2 8.0 0.00 0.00 0.00 42 1013.0
20260504120127 9 253 1.6 4.8 0.00 0.00 0.00 55 1013.5
20260504110626 6 182 0.0 3.2 0.00 0.00 0.00 67 1013.4
20260504100126 6 215 0.0 3.2 0.00 0.00 0.00 66 1013.1
20260504090126 6 261 1.6 3.2 0.00 0.00 0.00 67 1013.4
20260504081626 6 261 1.6 1.6 0.00 0.00 0.00 63 1013.5
20260504080626 7 261 0.0 1.6 0.00 0.00 0.00 63 1013.6
20260504080126 7 261 1.6 3.2 0.00 0.00 0.00 63 1013.6
20260504070125 7 92 0.0 4.8 0.00 0.00 0.00 62 1013.4
20260504060125 6 229 0.0 3.2 0.00 0.00 0.00 63 1013.0
20260504050624 6 194 0.0 3.2 0.00 0.00 0.00 62 1012.9
20260504045125 6 143 0.0 3.2 0.00 0.00 0.00 61 1012.7
20260504044625 7 143 1.6 3.2 0.00 0.00 0.00 61 1012.8
20260504044124 7 143 0.0 3.2 0.00 0.00 0.00 60 1012.9
20260504043625 7 143 0.0 3.2 0.00 0.00 0.00 60 1012.8
20260504043124 7 190 0.0 3.2 0.00 0.00 0.00 60 1012.8
20260504042624 7 190 0.0 3.2 0.00 0.00 0.00 60 1012.8
20260504042124 7 190 3.2 3.2 0.00 0.00 0.00 60 1012.7
20260504041624 7 221 0.0 3.2 0.00 0.00 0.00 60 1012.7
20260504041124 7 227 1.6 1.6 0.00 0.00 0.00 59 1012.7
20260504040624 7 227 0.0 3.2 0.00 0.00 0.00 59 1012.6
20260504040124 7 227 0.0 3.2 0.00 0.00 0.00 59 1012.4
20260504035624 7 227 0.0 3.2 0.00 0.00 0.00 59 1012.2
20260504035124 7 227 1.6 3.2 0.00 0.00 0.00 60 1012.2
20260504034624 7 227 0.0 3.2 0.00 0.00 0.00 60 1012.3
20260504034124 7 233 0.0 6.4 0.00 0.00 0.00 61 1012.2
20260504033624 7 276 0.0 6.4 0.00 0.00 0.00 60 1012.3
20260504032624 7 245 1.6 3.2 0.00 0.00 0.00 62 1012.1
20260504032124 7 300 0.0 4.8 0.00 0.00 0.00 61 1012.3
20260504031624 7 316 1.6 4.8 0.00 0.00 0.00 62 1012.3
20260504031124 6 277 3.2 4.8 0.00 0.00 0.00 62 1012.3
20260504030624 6 286 1.6 4.8 0.00 0.00 0.00 63 1012.3
20260504030124 6 263 1.6 3.2 0.00 0.00 0.00 64 1012.3
20260504025124 6 115 0.0 1.6 0.00 0.00 0.00 64 1012.3
20260504024624 6 115 0.0 1.6 0.00 0.00 0.00 64 1012.2
20260504023624 6 115 0.0 0.0 0.00 0.00 0.00 62 1012.3
20260504023124 6 115 0.0 1.6 0.00 0.00 0.00 62 1012.4
20260504022624 7 115 0.0 1.6 0.00 0.00 0.00 61 1012.5
20260504022124 7 115 1.6 1.6 0.00 0.00 0.00 61 1012.5
20260504021624 7 115 0.0 1.6 0.00 0.00 0.00 60 1012.4
20260504021124 7 115 0.0 0.0 0.00 0.00 0.00 59 1012.5
20260504020623 7 115 0.0 0.0 0.00 0.00 0.00 58 1012.5
20260504020123 7 115 0.0 0.0 0.00 0.00 0.00 58 1012.5
20260504015623 7 115 0.0 0.0 0.00 0.00 0.00 57 1012.5
20260504015123 7 115 0.0 0.0 0.00 0.00 0.00 57 1012.5
20260504014623 7 115 0.0 0.0 0.00 0.00 0.00 56 1012.4
20260504014123 7 115 0.0 0.0 0.00 0.00 0.00 56 1012.4
20260504013623 8 115 0.0 0.0 0.00 0.00 0.00 55 1012.4
20260504011623 8 115 0.0 0.0 0.00 0.00 0.00 54 1012.3
20260504011123 8 115 0.0 0.0 0.00 0.00 0.00 53 1012.2
20260504010623 8 115 0.0 0.0 0.00 0.00 0.00 53 1012.2
20260504010123 9 115 0.0 0.0 0.00 0.00 0.00 53 1012.3
20260504005623 9 115 0.0 0.0 0.00 0.00 0.00 52 1012.0
20260504005123 9 115 0.0 0.0 0.00 0.00 0.00 52 1011.9
20260504004623 10 115 0.0 0.0 0.00 0.00 0.00 52 1011.9
20260504004123 10 115 0.0 0.0 0.00 0.00 0.00 52 1011.9
20260504003623 10 115 0.0 0.0 0.00 0.00 0.00 51 1011.8
20260504002623 10 115 0.0 0.0 0.00 0.00 0.00 49 1011.9
20260504002123 10 115 0.0 0.0 0.00 0.00 0.00 48 1011.9
20260504001623 11 115 0.0 0.0 0.00 0.00 0.00 48 1011.8
20260504001123 11 115 0.0 0.0 0.00 0.00 0.00 47 1011.7
20260504000623 11 115 0.0 1.6 0.00 0.00 0.00 47 1011.7
20260504000123 11 115 0.0 1.6 0.00 0.00 0.00 47 1011.7
20260503235623 11 52 0.0 0.0 0.00 0.00 0.00 46 1011.6
20260503235123 11 52 0.0 1.6 0.00 0.00 0.00 45 1011.5
20260503234623 11 53 0.0 3.2 0.00 0.00 0.00 45 1011.4
20260503234123 11 69 0.0 6.4 0.00 0.00 0.00 45 1011.4
20260503233623 11 322 1.6 6.4 0.00 0.00 0.00 44 1011.4
20260503233123 11 205 3.2 3.2 0.00 0.00 0.00 44 1011.3
20260503232623 12 165 1.6 6.4 0.00 0.00 0.00 44 1011.3
20260503232123 12 327 0.0 6.4 0.00 0.00 0.00 44 1011.2
20260503230122 12 59 1.6 14.5 0.00 0.00 0.00 43 1011.2
20260503225123 12 250 3.2 11.3 0.00 0.00 0.00 41 1011.0
20260503224623 12 295 1.6 9.7 0.00 0.00 0.00 42 1010.9
20260503224123 12 304 3.2 9.7 0.00 0.00 0.00 41 1011.0
20260503223123 12 261 6.4 11.3 0.00 0.00 0.00 39 1011.0
20260503222622 12 344 0.0 6.4 0.00 0.00 0.00 39 1011.1
20260503222122 12 288 6.4 9.7 0.00 0.00 0.00 39 1011.0
20260503221622 12 23 3.2 11.3 0.00 0.00 0.00 39 1011.0
20260503221122 12 339 3.2 11.3 0.00 0.00 0.00 37 1011.1
20260503220622 12 65 3.2 8.0 0.00 0.00 0.00 37 1011.0
20260503220122 12 300 1.6 8.0 0.00 0.00 0.00 36 1010.9
20260503214122 13 331 6.4 14.5 0.00 0.00 0.00 35 1010.9
20260503213622 13 300 4.8 9.7 0.00 0.00 0.00 35 1010.8
20260503213122 13 325 3.2 11.3 0.00 0.00 0.00 36 1010.9
20260503212622 13 355 3.2 11.3 0.00 0.00 0.00 35 1010.8
20260503212122 13 278 3.2 11.3 0.00 0.00 0.00 36 1010.8
20260503211122 13 272 6.4 12.9 0.00 0.00 0.00 34 1010.6
20260503210622 13 360 1.6 11.3 0.00 0.00 0.00 34 1010.6
20260503210121 13 336 3.2 12.9 0.00 0.00 0.00 35 1010.6
20260503205621 13 290 4.8 12.9 0.00 0.00 0.00 35 1010.8
20260503204622 13 37 1.6 11.3 0.00 0.00 0.00 35 1010.8
20260503204122 13 320 3.2 11.3 0.00 0.00 0.00 34 1010.9
20260503203622 13 259 4.8 14.5 0.00 0.00 0.00 36 1010.8
20260503203122 12 17 3.2 14.5 0.00 0.00 0.00 35 1010.9